Location: Kawakawa
(35.3830°S, 174.0670°E)
Time: 10:07:56
(UTC+13:00)

BREEZE-M DEB (TANK) - Pass Details

Date: 24 January 2019
Orbit: 278 x 14014 km, 46.1° (Epoch: 19 February)

Event Time Altitude Azimuth Distance (km) Brightness Sun altitude
Rises 22:17:44 0° 282° (WNW) 4,652 7.6 -18.0°
Reaches altitude 10° 22:22:29 10° 271° (W) 2,440 6.3 -18.7°
Maximum altitude 22:26:24 25° 213° (SSW) 949 4.3 -19.3°
Drops below altitude 10° 22:28:31 10° 151° (SSE) 1,273 4.3 -19.6°
Enters shadow 22:28:54 - 145° (SE) 1,421 4.5 -19.7°
